Theta_e
315 317 320 318 318 321 317 319 318 318 318 311 312 312 315 321 322 320 321 322 322 326 326 329 330 327 329 332 332 337 346 350 350 341 341 354 350 348 350 349 352 351 349 348 345 339 337 335 331 331 331 334 338 341 344 344 343 342 338 329 329 334 338 340 342 343 344 344 343 342 341 337 334 335 335 334 336 340 342 342 343 343 343 343 342 341 341 341 341 341 341 340 340 339 338 337 337
318 321 321 317 317 321 319 319 316 314 312 307 311 314 317 322 321 319 321 323 328 332 331 332 331 331 333 338 336 338 348 348 350 350 350 351 348 350 349 350 351 351 350 347 344 343 344 338 331 332 333 336 339 341 344 344 343 341 334 329 333 337 339 342 344 344 343 343 342 341 338 334 332 334 335 335 336 338 340 341 342 342 342 342 341 341 340 341 341 341 341 340 339 339 338 337 336
323 320 317 314 318 321 322 320 314 310 309 307 310 317 320 320 320 320 322 328 333 332 333 333 332 335 335 337 337 340 348 348 348 348 348 348 349 350 348 350 351 351 350 347 344 345 346 339 331 333 335 337 339 341 343 343 342 337 331 332 337 340 342 344 344 343 343 342 341 339 335 331 331 334 337 338 337 337 339 340 341 341 341 340 340 340 340 341 340 340 340 340 339 339 337 336 336
325 318 315 315 318 320 322 320 315 310 308 307 308 318 321 320 320 320 325 332 332 330 333 334 335 338 340 339 338 345 349 347 349 348 349 350 349 349 349 351 350 351 349 347 345 346 345 336 331 333 336 338 340 341 341 341 338 333 333 337 340 343 344 344 343 342 342 341 340 338 334 331 331 334 337 339 338 338 338 338 339 340 340 340 341 340 340 340 340 340 340 340 339 338 337 335 334
321 316 317 317 318 319 320 318 316 311 309 310 310 317 321 319 320 319 322 328 331 332 332 334 336 339 344 344 344 348 348 347 349 350 351 350 350 349 349 349 350 350 348 347 346 346 344 334 331 334 337 339 340 339 339 337 334 333 336 339 342 344 344 343 341 341 341 341 338 335 331 329 331 333 336 338 339 340 338 338 339 339 339 339 340 340 339 337 338 339 340 340 339 338 336 334 333
319 316 317 319 320 320 317 314 312 310 313 317 314 318 320 319 320 319 319 323 329 333 333 335 335 339 345 347 348 349 349 349 348 350 351 350 350 349 348 349 349 349 348 348 346 347 342 333 332 336 339 340 339 337 335 334 333 335 338 341 343 344 342 341 339 339 340 337 331 328 327 328 331 333 336 337 338 340 340 340 339 339 339 339 339 339 338 337 337 338 340 340 338 337 335 333 335
318 315 316 317 319 320 316 311 311 312 316 320 318 319 319 319 319 318 319 319 323 328 333 335 333 340 344 345 347 349 351 351 349 349 351 350 350 349 349 349 349 349 349 348 347 348 341 332 334 338 340 340 339 337 334 334 335 338 340 342 343 343 341 338 336 336 334 328 326 330 331 331 333 335 336 337 339 340 340 341 340 341 340 339 338 339 339 338 338 338 341 339 337 336 333 333 335
317 315 315 314 317 316 314 312 313 315 317 319 319 319 318 318 318 318 319 319 321 325 330 334 333 337 341 346 349 350 351 350 350 350 351 350 350 350 350 350 350 349 349 349 348 347 339 332 334 338 339 339 339 338 337 337 338 341 342 342 343 340 338 335 331 328 325 323 330 335 335 335 336 337 338 338 337 337 338 339 339 340 340 338 337 339 339 338 339 339 340 338 336 334 332 332 333
316 317 316 313 315 314 311 311 313 317 318 319 318 318 318 317 318 318 319 319 321 325 329 332 332 335 341 349 349 349 351 350 350 351 351 350 351 350 350 351 350 349 349 349 348 346 339 335 334 335 337 338 339 339 340 340 341 342 342 342 339 335 332 327 323 322 325 329 336 339 338 337 337 337 339 338 335 332 333 333 333 334 337 339 338 339 338 338 339 339 339 338 336 334 333 333 333
317 317 319 315 314 312 309 310 313 317 318 319 318 318 318 318 318 318 319 319 320 324 328 332 331 334 343 348 349 350 351 350 350 351 351 351 351 350 351 351 349 349 349 349 348 345 339 334 334 333 335 337 338 339 339 340 341 341 338 335 332 328 326 322 322 326 333 337 340 340 339 337 336 336 336 336 334 331 331 330 330 329 331 334 337 339 339 338 339 339 339 338 336 334 334 334 333
317 316 317 314 311 308 308 310 313 317 318 318 317 318 319 319 320 319 319 319 320 322 326 332 331 335 344 348 350 351 351 350 351 351 351 350 350 350 352 351 348 349 350 349 347 345 339 334 334 333 334 334 335 337 337 337 337 334 329 328 327 325 325 327 331 335 338 340 342 341 340 338 338 337 334 334 334 333 332 332 331 330 329 329 332 335 337 338 338 338 337 336 335 334 334 333 332
316 315 316 313 310 310 311 311 313 318 318 317 317 318 320 320 320 320 320 319 319 320 326 332 330 338 346 348 350 351 352 351 351 350 350 350 350 350 351 350 349 350 350 348 346 345 342 338 336 335 335 334 334 335 334 334 332 328 324 323 327 329 332 335 337 339 340 341 341 341 340 339 338 337 334 334 335 334 333 333 332 331 330 329 329 330 333 336 337 337 336 335 334 333 332 332 333
316 317 315 312 313 313 314 313 314 317 316 317 318 318 320 320 322 321 322 320 320 320 324 332 333 342 348 349 350 350 352 350 350 350 350 349 349 350 348 350 349 349 349 348 346 345 343 341 340 337 336 335 335 334 335 334 330 324 322 325 331 335 336 337 338 339 341 341 341 341 340 339 338 336 335 335 336 335 335 335 335 334 332 330 329 330 331 332 333 334 334 333 333 333 332 332 332
316 318 316 313 315 315 314 313 315 314 313 318 318 318 319 322 325 324 325 322 319 321 326 333 337 343 348 350 350 350 351 350 349 349 349 348 349 350 348 349 348 349 348 346 346 344 344 343 343 341 338 337 336 336 338 337 331 325 327 332 336 338 337 337 338 339 340 339 338 340 340 339 339 337 335 335 335 335 335 335 336 336 334 330 328 329 330 330 331 332 332 332 332 332 332 332 331
316 318 318 316 314 314 314 314 315 313 314 319 318 318 319 323 327 325 325 321 322 328 331 336 338 342 346 347 348 350 350 349 349 348 349 348 349 349 348 348 348 348 346 345 345 344 343 342 343 343 341 340 340 340 340 339 336 335 336 339 340 338 337 337 337 338 338 337 336 338 340 340 339 338 337 335 335 335 336 336 337 336 334 329 325 326 328 329 329 329 330 330 331 331 331 330 329
317 317 318 315 312 312 314 316 315 313 315 319 319 318 319 325 328 327 327 324 332 336 334 337 339 340 339 341 345 348 349 349 348 348 348 347 349 349 348 347 347 347 347 346 346 344 344 343 343 343 343 341 340 342 341 339 338 339 341 341 341 338 337 336 336 336 335 334 337 339 339 339 338 338 337 336 335 335 337 337 337 336 333 328 324 325 326 327 327 326 327 327 328 328 328 329 329
317 318 317 314 312 312 314 317 315 314 316 319 319 318 319 326 329 330 331 330 335 337 336 338 340 341 341 343 346 349 349 349 348 348 348 347 348 349 347 347 346 346 346 345 345 343 341 343 343 342 343 340 340 341 340 339 338 339 340 340 340 337 336 335 335 335 334 335 339 339 338 338 338 338 336 335 335 335 336 337 336 335 333 328 325 325 325 325 325 325 325 325 325 326 326 327 328
317 317 316 312 313 314 316 318 316 316 318 318 318 318 318 325 331 332 332 331 333 336 339 340 343 345 347 349 348 348 349 348 349 348 348 348 348 348 347 347 345 345 344 343 344 343 341 341 342 341 341 340 341 341 339 339 339 339 339 339 338 336 335 335 335 335 335 337 339 338 338 338 338 339 337 335 336 335 335 335 335 334 333 330 326 326 327 326 326 325 325 325 325 325 325 328 329
316 316 314 313 315 317 317 318 317 317 318 318 318 318 318 324 330 332 332 333 332 335 338 340 344 346 346 348 347 348 348 349 349 348 349 348 348 348 347 346 345 344 343 342 341 341 341 341 342 342 342 342 341 339 339 340 340 339 340 340 337 336 336 336 335 335 336 338 338 338 339 338 338 339 338 337 336 335 334 333 334 334 333 332 329 328 328 327 327 326 327 326 325 324 327 333 333
316 316 314 315 317 318 318 317 317 317 318 318 318 317 319 322 326 329 332 335 335 335 337 338 343 346 345 344 346 348 348 349 350 349 349 348 347 347 346 346 345 344 342 341 338 337 339 342 343 342 342 342 340 340 340 340 340 339 340 339 338 337 336 337 336 336 338 338 338 338 338 338 338 339 338 337 336 334 333 332 333 333 332 332 330 331 330 328 327 327 327 326 326 327 330 333 332
316 315 315 316 317 317 318 317 317 317 317 317 317 317 318 319 323 325 329 334 336 335 335 334 338 345 346 343 346 349 349 349 350 349 349 348 347 346 345 345 344 344 342 341 340 338 338 339 341 341 340 341 340 341 340 339 339 338 339 339 338 338 337 337 337 336 337 337 337 338 339 339 338 338 337 337 337 335 333 333 334 334 334 332 330 333 334 331 330 331 330 328 330 331 331 332 331
316 315 315 316 317 317 317 317 316 316 317 317 317 317 318 318 320 322 325 330 332 331 330 332 336 343 345 344 345 348 348 348 348 349 349 348 347 345 344 344 344 344 343 342 341 340 339 339 341 342 339 340 341 340 340 339 339 339 339 339 338 338 337 337 337 336 338 338 338 338 338 338 337 336 336 337 336 335 333 333 335 334 334 333 332 334 334 333 333 334 333 331 332 333 332 332 331
316 316 316 316 317 317 317 317 316 316 316 316 316 317 317 318 319 320 322 325 327 327 329 333 335 340 344 345 346 347 347 346 347 348 348 347 346 345 343 343 344 344 343 341 339 337 338 340 342 341 338 338 340 340 339 340 340 338 338 337 337 337 336 336 336 336 337 338 337 336 336 336 337 336 336 337 335 335 335 334 334 333 333 333 334 334 333 333 332 332 333 333 333 333 333 332 330
316 315 316 317 316 316 317 316 316 316 315 316 317 317 316 317 318 318 321 325 327 327 327 331 334 337 342 344 345 346 347 347 348 348 346 346 345 344 344 343 343 343 341 338 336 334 337 340 339 338 337 337 338 339 340 339 338 337 337 337 337 338 336 335 337 337 337 339 338 336 336 336 337 337 337 337 336 335 334 334 334 333 333 333 333 333 332 332 332 333 334 333 333 333 332 331 331
316 315 316 317 316 316 316 315 316 315 315 316 316 316 316 316 318 318 320 323 326 325 322 329 334 335 341 344 344 346 347 347 348 348 346 345 344 343 344 342 341 341 339 337 335 334 336 338 337 337 338 338 338 339 339 338 337 337 337 337 338 338 336 337 339 340 339 340 338 337 336 335 336 337 337 336 337 335 333 334 335 334 334 333 332 332 332 332 333 335 336 335 333 332 332 331 331
316 316 315 315 317 316 316 315 315 315 315 315 315 316 317 317 317 316 318 322 324 323 321 328 332 335 342 345 344 346 347 347 347 347 346 344 343 344 343 341 340 339 337 336 335 335 335 335 337 337 338 340 339 338 338 337 337 337 336 336 337 337 338 340 340 339 339 338 338 337 335 334 336 336 335 336 336 335 335 335 335 334 334 333 332 332 333 334 334 335 336 335 333 331 332 331 331
316 316 315 315 316 316 316 315 315 316 315 315 315 315 316 317 316 316 318 322 323 322 323 329 332 333 338 342 344 345 346 346 346 346 345 344 344 343 343 341 339 338 338 337 336 336 334 334 336 336 338 340 339 339 338 337 337 336 336 336 336 337 339 341 339 338 337 337 337 336 334 334 335 335 335 336 335 335 336 335 334 335 334 333 334 333 333 334 334 334 335 334 331 332 332 332 331
316 315 315 315 315 316 316 315 315 315 315 315 315 315 316 316 316 316 318 322 322 322 326 331 333 332 334 340 343 343 344 345 345 346 345 345 344 343 343 341 339 339 339 337 336 335 334 335 336 336 338 338 338 339 337 337 337 336 337 336 336 338 340 340 338 337 336 336 336 335 335 335 334 336 337 337 334 334 336 335 333 334 334 334 334 334 334 334 334 334 333 332 331 331 332 332 332
315 314 314 315 315 315 315 315 315 315 315 316 315 313 315 316 316 316 320 323 321 323 327 330 333 334 335 340 342 342 344 345 345 346 345 345 343 343 344 341 339 340 339 337 335 335 337 338 335 336 339 338 338 338 337 337 337 338 339 337 337 339 340 339 338 336 336 336 335 334 335 335 334 336 337 336 335 335 336 335 333 333 334 334 334 334 334 334 334 333 332 331 331 331 331 331 331
314 314 314 314 313 313 315 315 314 315 315 316 315 310 311 316 316 316 322 324 321 323 326 328 333 336 338 340 342 342 344 344 345 346 345 345 343 344 344 342 340 340 338 336 336 337 339 339 336 337 339 337 338 338 338 338 338 338 339 339 338 339 339 338 338 337 336 336 335 333 334 334 335 335 335 336 335 335 335 334 333 333 333 333 333 333 333 333 334 333 332 331 332 331 331 330 331
313 313 313 313 310 311 315 315 314 315 314 316 315 309 310 316 316 317 322 323 322 324 325 328 332 336 338 341 341 342 343 343 345 345 345 345 344 344 343 342 342 341 339 337 338 339 340 339 336 337 338 335 337 338 339 339 339 339 339 339 339 339 338 338 338 337 337 337 335 334 334 334 334 335 335 335 335 334 334 334 333 333 333 333 333 332 333 333 333 333 333 332 332 332 332 331 331
313 310 310 311 309 311 316 316 315 315 315 316 314 309 312 316 317 317 320 322 322 323 325 328 331 335 339 341 341 340 342 343 345 345 345 344 343 343 343 343 342 341 340 339 339 339 340 340 336 337 337 336 337 337 338 339 340 339 339 339 339 339 338 337 337 337 336 336 334 334 335 335 334 335 335 335 335 334 334 334 333 333 333 333 332 332 333 333 333 333 333 333 333 333 333 332 330
313 310 307 309 309 310 314 315 316 315 315 315 314 312 313 316 318 318 321 322 321 321 325 329 331 336 340 341 341 340 341 343 345 345 345 343 343 343 342 343 342 341 340 338 338 339 339 338 337 338 337 335 335 336 338 340 340 340 340 339 339 338 337 337 337 337 337 335 335 335 335 335 335 335 335 335 334 334 334 334 333 333 332 333 333 332 333 333 332 332 332 333 333 333 334 332 329
311 311 309 311 311 309 311 314 316 316 315 315 314 314 314 318 320 321 322 320 320 320 324 330 331 335 340 341 341 340 340 342 344 345 345 342 342 343 342 342 341 340 340 336 336 338 338 336 337 338 337 335 335 337 339 340 340 340 339 339 338 338 337 336 336 337 337 336 336 336 335 335 335 335 335 335 334 334 334 333 333 333 332 332 332 333 333 333 332 332 332 332 332 332 333 332 330
310 310 309 310 311 310 311 313 316 316 315 315 315 314 314 317 320 322 322 319 321 320 324 330 331 335 340 340 340 339 339 342 344 345 345 343 342 342 342 342 339 338 339 336 335 337 336 334 336 337 336 335 336 337 338 339 340 339 339 337 337 336 334 334 334 335 334 333 334 334 335 335 334 335 334 334 334 334 334 333 333 333 332 332 332 332 332 332 332 332 332 331 331 332 333 332 331
312 312 311 309 310 311 312 315 316 316 315 315 315 315 315 316 318 321 322 320 321 320 325 331 332 334 337 339 340 340 340 341 343 344 343 342 342 342 341 341 340 336 335 334 334 337 336 334 335 336 336 336 336 338 338 338 338 338 336 334 333 332 331 332 333 332 331 330 330 331 332 332 333 334 334 334 334 333 333 333 333 332 331 332 332 331 331 331 331 332 331 331 331 331 331 331 332
316 315 313 310 310 311 314 317 317 317 316 315 316 316 316 317 317 320 322 322 322 321 327 334 333 333 334 337 339 340 340 340 341 344 342 341 342 341 339 340 339 334 331 332 334 336 335 333 334 335 335 336 336 338 338 336 335 334 332 330 331 332 331 332 332 330 330 329 329 329 330 330 331 333 333 334 333 332 333 333 333 332 331 331 331 331 330 331 332 333 332 331 331 331 330 331 333
316 315 312 311 310 312 315 316 317 318 317 316 317 316 317 319 317 319 323 324 323 322 328 334 332 331 332 335 338 339 340 338 339 343 342 341 340 337 337 339 338 333 330 332 333 332 331 332 333 333 335 336 337 337 336 334 332 331 330 329 330 331 330 330 330 329 328 328 329 329 329 329 329 330 331 331 331 330 330 331 330 331 330 330 330 330 331 332 333 334 333 330 331 331 330 331 332
316 314 312 310 311 313 315 317 318 318 317 316 317 316 317 319 318 322 327 326 324 323 327 332 331 331 332 334 338 339 339 339 339 342 342 338 334 334 337 339 337 331 329 331 331 330 331 333 334 334 335 336 335 334 332 330 330 330 330 330 330 330 329 329 329 327 326 327 328 328 329 328 328 328 327 327 328 328 328 328 328 328 328 328 328 329 330 331 332 333 333 331 331 332 331 331 332
316 314 311 310 312 312 311 316 319 318 318 317 318 317 317 319 320 325 329 326 325 325 325 330 330 332 332 333 337 338 339 340 339 341 338 331 330 333 335 336 336 332 330 331 329 329 332 333 333 334 335 335 333 331 329 329 330 331 331 331 331 330 330 329 327 325 325 325 326 327 328 327 326 326 325 324 325 327 327 327 327 327 327 327 327 327 328 328 329 330 331 331 332 331 330 330 332
314 315 313 311 314 313 312 317 319 319 319 319 319 315 314 318 322 326 329 327 328 327 325 329 331 331 333 335 337 338 339 339 340 339 331 328 329 333 334 333 334 332 329 331 330 329 331 332 333 335 334 333 332 331 330 330 331 332 333 332 331 330 329 328 326 324 324 325 325 326 327 327 325 325 324 324 325 326 326 326 326 326 326 327 327 326 326 326 327 327 328 329 330 330 330 330 333
312 315 315 315 316 316 316 318 319 316 315 318 318 311 310 317 321 326 328 328 331 331 328 330 331 332 334 335 337 339 338 338 338 333 329 330 330 331 333 332 334 332 328 331 332 331 332 331 331 333 333 332 333 332 331 332 333 333 333 331 329 329 328 328 326 324 323 324 325 326 326 326 325 325 324 323 324 324 325 325 325 325 326 327 326 326 326 326 326 326 327 328 328 330 330 330 331
310 314 316 316 318 317 317 318 316 313 313 318 317 311 310 315 318 322 325 325 327 330 332 330 331 333 333 335 336 337 337 337 331 329 330 332 332 331 332 331 334 332 328 332 335 334 334 332 332 334 334 333 331 330 332 333 333 333 332 330 329 328 328 328 326 325 324 324 325 325 326 326 325 324 324 324 323 323 323 324 324 324 324 325 325 326 326 325 326 326 327 328 328 330 330 329 330
311 316 316 315 318 318 318 317 315 313 315 319 318 313 311 312 316 320 324 324 323 328 331 329 331 334 333 335 334 333 336 333 329 331 331 332 332 332 331 331 336 335 332 335 336 334 334 333 334 334 335 333 329 329 332 333 332 332 331 329 329 329 329 328 326 325 324 324 324 324 324 325 324 324 324 323 321 320 321 322 322 323 322 322 322 323 323 325 326 326 326 327 327 328 328 328 329
314 319 318 315 316 318 318 316 314 315 315 314 316 314 312 313 317 321 324 324 321 326 329 327 329 330 331 334 333 334 334 329 331 331 332 333 333 334 333 332 336 337 336 335 333 332 332 332 332 331 331 332 331 332 334 334 332 332 331 329 329 329 328 326 324 324 324 324 325 323 323 323 324 324 322 321 319 319 320 320 321 321 321 320 320 321 323 324 325 325 326 326 326 326 326 328 329
317 319 317 316 317 316 317 316 313 314 314 313 314 313 311 313 317 320 323 322 321 325 328 329 330 329 330 333 333 336 330 330 333 333 333 333 335 336 334 333 336 337 336 335 333 333 333 333 333 332 330 331 334 335 334 333 333 332 330 329 328 327 326 324 323 324 324 324 324 323 322 322 322 323 321 319 319 319 320 320 320 320 320 320 320 321 322 322 322 322 322 322 323 325 325 325 327
318 319 317 316 316 317 317 316 314 314 314 313 314 314 311 311 316 318 319 321 323 327 329 330 331 331 331 331 332 334 327 331 334 334 334 335 336 336 334 333 336 336 335 333 332 333 334 333 333 334 334 333 336 335 331 332 334 331 330 329 327 326 325 324 324 324 324 323 323 323 322 321 321 321 320 319 318 318 319 319 318 319 320 320 321 321 321 321 321 321 321 320 321 323 323 323 324
317 318 315 314 313 314 313 313 313 314 314 313 312 315 313 312 317 321 321 324 325 326 327 328 329 329 328 327 330 331 328 332 336 335 334 335 336 335 334 334 335 335 333 332 331 331 333 333 331 333 334 334 336 333 329 330 333 330 330 329 328 327 326 324 324 324 324 323 323 322 321 321 320 320 319 318 318 318 318 318 317 317 318 319 319 320 320 320 320 320 320 321 321 322 322 322 323
317 316 314 312 311 312 312 311 312 312 313 313 313 315 313 313 320 324 324 326 327 326 325 325 326 327 326 325 329 332 332 334 336 334 334 335 335 336 335 334 335 335 333 333 332 331 331 331 330 332 334 333 334 331 328 329 332 331 329 328 328 328 325 324 324 324 324 323 322 321 320 320 320 319 318 318 318 319 318 318 316 316 316 318 318 319 320 319 318 319 320 321 321 321 321 321 321
315 314 312 312 312 314 314 312 312 312 312 314 315 317 313 314 322 325 325 327 328 328 327 326 325 325 325 325 329 334 336 335 334 334 334 334 335 336 336 335 335 335 334 334 334 332 332 332 331 332 334 334 334 332 329 330 332 331 329 328 329 328 325 324 323 323 323 323 321 320 320 320 320 319 318 318 319 318 318 317 317 316 316 316 316 317 318 318 317 317 318 319 319 319 319 319 319
315 315 314 313 312 314 314 312 312 311 312 313 316 317 313 314 322 327 328 327 326 327 327 326 326 326 326 326 329 334 336 334 333 333 333 333 335 336 336 335 334 334 334 334 334 333 334 333 333 334 335 334 334 332 331 332 333 331 329 328 328 328 325 323 323 323 323 322 321 320 320 320 320 319 319 319 319 318 318 318 318 317 316 316 316 316 317 317 316 315 316 317 316 316 317 316 317
315 316 314 313 313 314 313 313 314 312 312 314 315 315 315 318 324 326 328 329 327 327 328 326 327 328 328 327 330 333 333 332 331 332 333 334 335 335 334 333 333 333 333 333 333 333 334 334 334 334 334 333 333 332 332 331 330 329 330 329 328 328 326 324 323 323 323 322 321 320 320 320 320 319 319 319 319 319 319 318 318 319 318 317 317 316 316 317 316 315 316 316 315 314 315 315 315
316 315 313 315 317 316 312 313 315 313 312 313 314 314 315 319 324 325 326 329 329 329 329 329 330 330 329 328 330 331 331 331 331 333 333 333 334 334 333 331 332 332 332 332 332 332 333 333 333 333 333 332 331 331 330 329 327 327 329 330 330 329 328 326 325 325 325 323 321 320 321 321 320 319 319 319 320 320 319 318 319 320 319 318 317 316 317 317 316 316 316 316 315 315 315 315 315
318 316 314 316 317 316 314 313 314 313 312 311 312 313 313 314 318 323 324 327 329 329 330 331 332 331 329 330 330 330 330 331 332 333 332 332 332 333 332 331 330 331 331 331 331 331 332 332 332 332 332 331 330 328 326 324 322 324 326 329 330 330 328 327 326 326 326 324 322 322 322 322 320 319 320 320 320 320 320 319 319 320 320 320 319 318 318 317 316 317 316 317 317 316 316 316 316
317 318 317 316 314 312 313 313 313 314 313 311 311 313 312 311 315 320 322 325 329 329 329 330 331 330 328 328 329 328 329 330 330 331 330 330 330 330 331 331 330 330 330 330 330 330 330 330 331 330 330 330 329 328 326 322 319 322 325 327 330 329 328 327 324 323 323 323 323 322 322 322 320 320 320 320 320 320 320 320 320 321 321 320 320 320 320 319 318 318 318 318 318 317 316 316 316
315 315 316 316 315 313 312 313 312 312 313 313 313 312 313 316 319 319 321 327 329 328 328 328 329 329 328 327 328 326 326 327 327 327 327 328 329 330 330 330 329 329 330 329 329 329 330 329 328 327 327 329 328 328 329 325 320 324 327 328 329 328 328 327 325 322 321 321 321 320 320 321 321 320 320 320 320 320 320 321 321 321 322 321 321 321 321 320 320 320 319 319 319 318 317 317 316
313 313 313 314 315 314 314 314 313 312 312 313 313 312 316 323 324 321 325 328 327 326 327 327 327 328 328 327 327 326 325 326 325 325 326 326 328 329 329 329 328 328 329 329 328 328 328 329 328 327 327 328 328 329 329 326 324 325 327 328 328 327 327 328 326 323 321 320 319 318 319 321 321 320 320 320 320 320 321 321 321 322 322 322 322 322 322 321 321 322 321 320 320 320 319 318 317
315 314 312 313 313 313 314 313 313 313 313 313 313 315 321 326 325 325 328 327 326 326 327 327 325 327 329 328 327 326 326 325 325 325 325 325 327 328 327 327 326 327 328 328 327 327 327 327 328 328 328 328 328 329 328 327 326 325 326 328 327 327 328 329 328 325 321 320 320 319 320 322 321 320 320 320 320 321 322 322 322 322 322 322 323 323 323 323 323 322 322 322 321 321 320 320 319
Wind_Speed
6 6 6 7 9 9 9 7 6 5 6 9 9 9 9 10 3 1 5 2 3 3 2 3 1 3 3 4 4 7 13 11 7 3 2 4 7 12 13 20 23 22 23 22 24 25 23 22 22 21 21 22 23 25 26 25 25 25 24 25 26 26 27 26 24 21 19 17 17 16 15 15 16 16 16 16 16 15 13 11 11 11 12 12 11 11 11 10 10 11 11 10 10 11 10 9 9
7 8 7 8 10 9 6 6 7 6 8 9 8 10 7 5 4 9 7 2 2 3 1 2 3 2 3 5 3 3 10 13 11 7 7 8 10 14 16 21 23 22 22 22 24 23 21 22 22 22 22 23 23 25 26 26 26 26 26 27 27 27 26 24 22 20 18 17 17 16 15 15 15 15 16 16 16 16 14 13 11 11 11 10 10 10 10 10 10 10 10 10 10 10 9 9 9
8 9 9 9 10 8 5 5 8 7 9 8 8 12 7 4 5 5 1 2 2 2 1 2 3 2 3 5 1 2 6 12 12 10 8 10 12 13 16 21 24 23 22 22 22 21 20 22 23 23 23 23 24 25 26 27 27 28 28 29 29 27 25 22 20 19 18 17 17 16 16 16 15 16 17 17 16 16 14 13 12 11 11 10 10 10 10 10 10 10 10 9 10 10 9 10 9
8 10 11 9 7 6 6 6 8 9 9 7 7 9 9 6 3 6 3 1 1 2 5 5 4 0 3 3 5 5 8 9 11 10 7 9 12 14 18 23 23 22 22 22 22 21 21 23 24 24 24 25 25 27 28 29 29 30 30 30 29 26 23 21 20 18 17 17 17 16 16 16 16 17 17 16 16 15 14 12 11 11 11 11 11 11 10 10 10 10 9 9 10 9 9 9 10
8 11 12 10 6 4 5 6 7 9 9 7 5 3 6 4 4 7 3 2 3 5 6 5 4 3 2 5 3 2 6 7 10 10 8 11 13 17 21 23 21 21 22 22 23 22 22 24 25 25 25 26 27 28 29 30 31 32 32 31 28 24 23 21 19 18 18 17 16 15 15 16 17 17 17 16 15 15 14 13 12 12 11 11 11 12 11 10 10 10 10 10 9 8 9 10 10
10 11 11 11 6 4 5 7 8 9 10 11 6 3 3 3 5 3 3 3 5 6 5 4 4 6 4 8 7 5 6 3 8 9 10 15 17 19 21 20 19 21 22 23 23 23 25 26 25 26 27 27 28 29 30 32 32 33 32 30 26 23 22 20 19 18 18 16 16 16 16 17 17 18 17 16 15 13 12 12 13 13 11 11 11 11 11 10 10 10 10 9 9 8 9 11 11
11 9 8 8 6 4 7 8 9 9 10 13 7 5 4 4 2 3 4 5 7 7 7 5 4 6 6 6 7 9 9 6 7 10 13 18 19 20 19 19 18 21 22 22 21 22 27 28 26 27 28 28 29 29 31 32 32 32 31 28 25 23 21 20 19 19 18 18 19 19 19 19 18 18 17 16 15 13 12 13 12 11 11 12 12 11 11 10 10 10 10 10 9 8 9 10 9
12 8 5 7 6 5 8 9 9 9 6 9 7 2 4 3 2 4 5 5 6 8 10 8 7 7 6 6 6 8 10 10 11 15 18 19 19 19 18 18 19 20 20 20 20 23 27 28 27 27 27 28 29 30 31 32 31 30 28 26 24 22 21 21 20 20 20 20 21 20 20 20 19 18 17 16 15 14 13 13 11 10 11 11 12 11 10 10 10 11 10 10 9 8 8 8 6
12 9 5 7 7 6 8 9 10 11 5 4 5 1 2 4 6 6 5 6 4 6 10 10 9 8 8 10 6 6 9 11 15 18 19 18 18 18 17 17 18 19 18 19 20 24 26 28 28 27 26 27 28 29 29 30 30 28 26 25 23 22 23 23 22 21 21 20 20 19 20 20 20 20 18 16 15 15 13 12 10 9 10 11 12 11 10 9 10 10 9 8 7 7 8 7 5
9 7 6 6 7 8 8 9 8 10 8 2 2 1 1 5 7 7 7 8 7 6 8 10 10 8 11 11 6 5 9 13 16 17 18 17 18 17 16 16 18 19 18 19 21 23 25 27 28 26 26 25 25 25 26 28 28 27 25 24 24 25 24 23 22 21 20 19 19 19 20 21 20 20 19 18 16 15 14 12 10 9 9 10 11 10 10 9 9 9 8 7 7 7 7 5 4
7 6 6 6 8 9 8 8 8 9 7 1 2 2 1 4 6 8 8 9 8 8 8 7 8 8 12 10 5 6 10 14 15 15 16 17 17 16 15 16 18 19 18 20 21 22 25 26 27 26 26 25 24 23 24 26 27 26 24 24 25 26 24 23 22 21 19 18 20 20 20 21 19 19 19 19 17 15 13 12 10 8 8 8 9 10 10 9 9 9 8 8 8 7 5 4 4
7 7 6 7 8 8 8 9 8 7 5 4 5 4 1 5 7 8 9 10 9 10 8 6 7 8 10 8 5 7 12 13 14 14 15 16 16 17 17 16 17 19 19 20 21 22 24 24 24 24 24 24 24 24 24 24 25 25 23 25 26 25 24 23 21 20 19 18 19 19 20 20 18 19 19 18 17 15 13 12 10 8 8 7 7 9 10 10 10 9 8 8 8 6 5 6 6
8 7 7 8 8 8 9 9 6 3 3 5 5 5 1 6 7 8 8 10 10 11 9 7 5 8 7 6 6 7 12 14 15 14 15 16 16 17 19 17 17 19 19 19 19 21 23 22 21 22 23 23 23 24 24 24 24 24 25 27 26 24 23 22 20 19 19 18 18 18 18 18 17 18 17 17 16 15 13 11 10 8 8 7 7 8 9 10 9 8 7 8 8 5 6 7 6
8 7 7 7 8 10 8 8 6 5 6 5 4 3 4 5 5 6 7 11 12 8 7 7 6 14 7 5 7 6 11 15 16 15 15 16 16 17 19 18 17 18 18 18 19 22 23 21 19 19 21 21 22 23 22 22 24 25 25 26 24 22 22 21 20 18 18 17 17 18 18 17 16 16 15 15 14 13 12 11 10 8 7 6 7 8 8 8 8 8 8 9 9 7 7 7 5
9 6 7 7 8 9 7 8 6 6 4 6 6 2 5 3 4 7 10 12 7 4 7 6 5 11 9 7 7 9 13 17 17 16 15 15 16 17 18 18 17 17 17 18 19 20 21 21 20 19 19 20 21 22 21 21 22 23 23 22 21 21 21 20 19 18 17 16 16 17 17 17 16 15 15 14 13 12 11 11 10 9 7 5 6 8 8 8 8 9 9 9 9 8 7 6 5
8 6 6 7 9 9 7 8 6 5 2 7 5 3 6 4 4 8 6 7 4 8 6 6 1 4 9 9 9 17 19 18 18 17 16 16 16 17 18 17 16 15 14 17 17 17 19 19 20 19 17 20 22 20 19 20 20 20 20 19 18 20 20 19 18 17 16 15 15 16 16 16 15 15 14 13 12 11 11 10 10 8 7 6 7 8 9 9 9 9 8 8 8 7 6 5 4
6 6 7 7 9 9 6 7 6 4 4 5 3 3 6 5 4 5 2 4 5 10 6 6 4 6 7 7 16 25 22 19 19 18 17 17 16 16 17 17 16 14 14 16 15 17 20 18 18 19 19 21 20 18 18 20 19 18 18 18 18 19 18 17 16 16 15 14 14 16 16 14 14 13 13 12 11 10 10 10 9 8 7 7 8 8 8 8 8 7 7 7 6 5 5 4 2
6 6 8 8 9 9 5 6 5 3 3 5 3 3 6 3 6 3 6 9 8 10 7 10 10 10 12 16 22 25 23 21 20 19 18 16 15 15 16 16 16 15 15 15 12 13 16 17 18 19 20 20 18 17 18 19 19 19 19 20 19 19 18 17 16 16 16 14 14 15 15 13 12 12 12 12 11 11 10 9 9 9 8 7 8 8 7 7 6 6 6 5 5 4 4 4 3
8 7 9 8 10 7 3 3 0 1 2 4 3 4 4 1 7 4 6 9 11 13 10 11 10 12 14 17 21 22 22 21 20 19 17 16 15 14 15 15 16 16 16 14 13 12 13 17 18 18 18 19 21 20 20 21 21 22 21 19 20 19 19 18 17 18 16 15 14 14 13 13 12 11 12 13 12 12 11 10 10 9 8 7 7 7 7 6 5 5 5 5 5 4 4 5 6
9 9 8 9 12 8 0 3 3 2 2 0 2 2 2 2 5 6 7 6 7 9 10 10 9 12 14 16 18 21 20 19 19 18 17 16 15 14 14 14 14 16 17 17 17 16 15 19 20 19 19 20 22 21 21 21 22 22 20 18 20 19 19 19 18 17 16 16 14 12 12 12 11 11 11 13 13 12 12 11 10 9 8 8 7 7 6 6 6 5 6 6 6 6 6 6 7
8 10 10 10 10 7 2 3 5 1 2 3 1 2 5 3 3 6 10 9 4 5 11 13 11 13 15 16 16 18 17 17 18 18 17 16 14 13 13 14 13 14 16 17 19 19 18 20 20 20 20 20 21 20 21 22 21 20 17 17 18 18 18 19 18 16 16 16 15 14 13 11 10 10 11 11 11 11 11 11 10 9 9 8 8 8 7 7 6 6 7 6 7 8 7 6 5
8 12 14 14 7 5 4 4 3 2 3 5 4 6 3 3 5 6 8 12 7 8 11 12 12 13 15 16 15 15 16 16 17 17 16 15 14 13 13 13 12 13 14 14 17 19 20 19 19 18 18 22 21 20 22 21 20 20 18 19 18 18 18 18 18 16 16 16 15 15 14 12 11 11 12 10 10 10 11 11 10 11 11 10 10 11 10 8 8 9 9 8 8 8 7 6 5
10 11 13 16 10 6 4 3 3 3 6 8 7 4 2 4 7 5 6 6 5 7 7 10 12 11 13 15 15 15 16 15 15 15 15 15 14 13 14 13 11 12 12 14 17 18 18 18 18 17 17 21 21 20 21 19 20 22 21 21 19 18 16 16 19 19 17 15 13 12 12 12 11 11 10 9 9 10 11 11 10 11 12 12 11 10 9 7 8 10 9 8 8 7 7 6 6
13 11 12 14 11 9 7 3 4 5 8 8 6 4 3 9 6 5 7 4 5 5 6 9 12 10 10 14 15 15 15 15 14 15 16 16 15 15 15 13 12 12 12 14 18 16 15 16 17 17 19 21 20 19 19 18 20 22 20 18 15 15 15 15 18 17 14 12 10 9 10 11 10 10 10 8 8 8 11 10 9 10 10 11 10 8 8 7 8 9 7 7 7 7 7 7 6
14 14 12 10 9 11 10 7 7 7 8 7 7 8 8 10 4 5 7 7 7 4 6 11 13 10 11 12 14 14 14 15 15 16 16 15 16 16 14 14 13 13 13 15 16 15 15 16 15 16 20 20 18 17 16 17 18 17 15 15 12 13 15 12 12 11 9 9 9 7 7 7 8 8 8 8 7 8 11 9 8 9 8 9 9 9 9 8 8 7 6 7 7 7 7 6 6
12 16 14 9 8 11 10 11 11 9 8 7 10 11 11 10 3 7 10 8 7 5 6 11 13 11 10 11 12 13 14 14 15 15 15 15 17 16 14 14 14 14 16 16 15 15 16 17 16 16 18 18 17 17 16 16 17 16 14 14 14 13 11 8 8 8 7 7 8 7 5 5 6 6 6 6 6 7 8 8 7 6 7 10 9 8 8 7 6 6 5 5 6 6 7 7 6
7 12 16 13 10 10 10 12 13 10 10 10 11 12 13 10 4 9 11 9 8 7 8 10 12 8 8 11 12 12 13 14 14 15 14 15 16 15 15 15 15 15 16 15 15 15 17 17 17 16 16 17 16 16 16 16 16 15 15 15 14 11 8 8 6 6 5 5 7 6 4 3 5 6 4 4 6 7 5 5 5 4 7 9 7 6 6 5 4 3 4 5 6 8 5 6 6
7 8 13 16 13 11 11 12 12 10 10 11 11 13 15 11 9 14 10 11 9 9 9 11 13 11 11 11 12 11 11 14 16 15 14 15 15 15 16 16 16 15 16 16 15 16 16 16 18 17 15 16 15 14 16 15 13 12 12 12 11 9 8 7 5 6 5 5 5 5 5 3 4 6 5 5 6 5 4 3 3 5 6 5 6 4 3 6 5 4 4 4 5 7 9 5 4
11 7 10 13 13 13 14 13 12 11 9 11 12 12 15 11 12 16 8 10 11 10 10 11 12 12 12 11 11 10 10 14 15 14 15 15 15 16 16 17 16 16 16 15 15 16 15 14 18 17 15 16 16 15 15 13 11 11 10 9 10 10 8 6 5 6 6 5 3 3 3 3 4 6 6 6 5 4 4 3 2 3 4 4 6 5 3 6 7 5 3 3 3 4 8 9 6
11 10 9 10 12 13 16 15 14 14 11 12 12 9 13 14 17 17 10 10 11 11 11 10 10 10 10 10 10 10 11 13 13 14 15 15 14 16 17 16 16 15 15 15 15 16 14 13 16 15 14 16 16 15 14 12 10 10 9 7 8 9 6 6 5 5 6 5 4 3 2 2 4 5 6 6 6 5 4 3 2 2 4 4 5 6 6 7 6 5 3 3 4 4 6 7 7
10 11 9 9 9 10 16 17 16 16 10 11 12 8 10 14 19 20 14 14 12 12 12 11 10 9 9 10 9 10 11 11 13 13 14 16 15 15 17 16 15 14 14 15 16 16 14 13 15 15 14 13 12 11 10 10 9 8 7 6 7 7 5 6 5 5 6 6 6 6 4 4 5 5 5 6 6 4 2 2 2 3 4 4 3 3 5 6 5 4 3 2 3 5 6 7 6
10 10 9 10 9 10 14 18 16 15 11 13 13 8 9 14 19 22 16 15 15 13 13 11 11 10 10 9 9 10 10 11 13 14 15 17 16 15 17 18 16 15 13 15 15 15 15 14 14 15 15 13 11 10 9 8 7 6 6 6 6 6 5 5 4 5 6 6 7 7 5 5 6 5 4 5 5 4 3 3 2 3 4 4 3 3 3 6 6 4 3 2 2 4 5 7 7
10 9 10 10 11 12 11 15 15 16 13 15 15 10 9 12 9 17 16 14 16 14 12 12 11 11 10 9 9 10 10 11 12 13 15 17 15 15 17 18 17 14 14 15 15 15 16 15 14 15 15 12 11 11 8 7 7 6 7 6 6 6 5 5 5 5 5 5 7 7 5 4 5 4 3 3 4 4 3 3 2 2 3 4 5 4 3 5 5 4 2 2 2 4 4 6 8
8 9 10 10 13 13 10 13 14 17 15 14 15 13 12 4 6 11 12 13 15 13 13 12 11 10 10 9 9 10 10 11 11 13 16 16 15 16 15 16 16 14 12 15 16 16 15 14 14 14 13 11 11 12 8 6 7 7 7 7 6 6 5 5 5 6 6 6 7 7 6 6 5 4 4 3 3 4 3 3 3 2 2 4 5 4 3 4 4 3 1 2 3 4 5 6 7
9 10 9 11 12 12 12 11 12 17 15 13 14 14 15 8 9 11 12 12 13 13 12 11 11 11 10 9 10 10 11 11 11 14 17 17 15 16 14 14 15 13 11 14 15 15 13 14 13 12 14 14 12 11 8 7 7 7 7 7 7 6 6 6 6 6 7 6 7 7 6 6 6 5 5 4 4 3 3 3 4 3 2 3 3 3 4 6 4 3 2 3 5 5 5 6 6
9 11 11 11 10 10 13 9 10 14 13 13 14 12 15 15 11 12 11 11 11 13 12 11 11 11 10 10 10 10 11 11 12 15 17 17 16 15 13 12 14 12 11 14 14 11 11 15 14 11 13 14 13 11 9 7 7 7 7 6 7 7 7 7 7 7 7 7 8 7 7 5 5 6 5 5 5 5 5 4 3 3 3 3 2 3 4 5 4 3 4 5 6 6 6 7 6
7 8 10 13 11 9 13 9 10 9 10 12 14 13 13 15 13 12 12 11 12 14 13 12 11 11 11 11 11 11 11 10 12 15 16 16 14 13 11 10 11 11 12 14 12 8 11 15 14 9 8 9 10 10 8 6 5 7 8 8 8 8 8 8 8 8 8 8 8 7 7 6 5 6 5 5 5 5 5 5 4 2 1 2 2 3 3 3 4 4 6 7 7 8 7 7 5
8 8 6 10 10 8 13 11 10 8 8 8 12 14 12 14 15 12 11 11 12 14 13 13 13 13 11 12 12 11 10 10 12 13 14 13 11 10 9 9 11 14 15 13 11 10 12 15 14 13 11 9 10 11 10 8 5 6 8 8 9 8 8 8 8 8 8 8 8 8 8 7 6 6 6 6 6 5 5 4 4 3 2 2 3 2 3 3 4 4 6 6 7 8 7 7 5
9 8 7 7 8 9 10 8 6 7 7 8 12 12 12 15 13 10 11 11 10 13 14 13 14 14 12 11 11 11 11 11 12 12 10 9 10 7 6 5 8 14 17 15 16 16 16 17 19 21 17 13 12 12 13 9 7 7 8 8 9 9 8 9 9 9 8 9 9 8 8 8 7 6 6 5 5 6 5 5 4 4 3 3 2 2 2 2 2 3 4 5 5 4 4 5 4
9 9 8 8 9 10 8 7 8 9 7 9 11 9 10 10 7 8 9 10 9 12 14 13 13 13 11 11 10 11 12 12 12 9 9 12 9 5 4 2 3 12 18 18 20 21 20 20 22 22 18 14 12 12 13 9 8 8 10 9 9 10 10 10 10 9 9 9 9 9 8 7 7 6 6 5 6 6 6 5 4 4 4 3 3 2 2 1 1 2 2 3 4 2 1 4 3
10 11 11 9 9 11 6 5 9 9 8 11 9 7 9 8 9 9 8 8 9 11 14 13 13 12 10 11 10 10 11 12 9 9 14 11 6 3 5 8 7 13 16 18 22 25 24 23 22 21 19 17 15 14 13 10 10 12 12 11 11 11 11 9 9 9 8 9 9 9 8 7 8 7 6 6 6 6 5 5 5 4 4 4 3 3 3 3 2 3 3 3 4 4 2 3 2
10 12 15 13 11 12 7 5 7 7 8 11 11 9 7 10 12 11 10 10 10 10 13 13 12 11 9 9 9 10 10 5 8 15 13 7 8 7 12 15 12 16 15 13 16 21 23 23 23 22 19 19 17 15 14 13 13 14 13 13 13 11 11 9 9 9 8 9 9 9 9 8 8 7 6 6 6 6 5 5 4 4 4 4 4 4 4 4 5 5 5 5 5 5 4 2 1
8 10 16 16 13 10 8 8 9 7 4 7 12 10 5 9 12 13 13 13 14 13 11 12 11 9 10 9 8 9 7 9 14 13 13 11 12 13 16 16 13 19 21 16 13 14 17 18 19 18 16 17 18 14 14 14 13 13 13 13 13 12 11 10 10 9 9 9 9 10 9 9 8 7 7 7 6 5 5 4 4 4 3 3 4 5 5 5 6 6 6 7 6 6 6 5 2
6 5 13 16 12 8 8 9 9 7 3 4 11 11 6 6 10 14 16 14 16 14 11 11 10 9 9 8 9 8 6 13 10 10 13 13 14 13 14 17 17 20 23 19 14 12 13 13 14 16 16 17 18 17 18 16 14 14 13 13 12 12 12 12 11 10 10 10 10 10 9 9 9 8 8 7 7 6 6 5 5 4 4 4 4 5 6 6 7 7 7 8 8 9 9 9 7
5 3 10 13 13 11 10 11 9 6 5 5 9 11 8 4 7 12 15 14 16 15 14 13 11 11 9 7 10 6 9 10 10 11 11 12 14 12 12 16 17 21 22 18 17 16 15 16 16 17 18 19 19 21 20 16 14 13 13 13 13 14 14 13 12 11 11 10 10 10 9 9 9 9 9 8 8 7 7 7 6 6 6 6 6 7 7 7 7 8 9 9 9 9 9 10 10
3 5 10 10 11 12 9 10 8 6 7 8 8 11 9 5 7 9 10 12 13 12 12 11 10 11 9 8 9 6 10 7 10 12 11 11 12 10 13 16 17 20 22 21 21 21 21 23 20 19 21 20 20 20 17 15 13 12 12 13 14 15 14 14 13 12 12 11 10 10 9 10 10 9 9 8 8 8 8 8 8 7 7 7 8 8 8 8 8 8 9 9 10 9 8 9 9
3 5 10 8 8 9 7 8 7 6 8 9 10 12 10 6 7 8 10 11 9 8 9 10 11 10 8 8 5 10 8 8 7 11 10 11 12 11 15 18 17 16 19 21 23 23 24 23 20 20 19 16 16 16 13 12 12 10 11 13 14 15 14 14 14 13 12 11 11 10 9 10 10 9 9 8 9 9 8 9 8 8 8 8 8 8 8 8 8 8 8 9 10 9 9 8 9
5 7 9 8 7 7 7 7 7 7 7 9 11 11 10 7 4 4 6 8 6 6 8 11 12 12 11 10 7 12 10 9 7 10 10 11 12 12 15 16 17 17 19 20 22 24 26 23 19 19 18 14 14 16 11 11 10 10 10 13 13 14 14 14 15 14 13 12 11 10 10 11 10 9 9 9 9 8 8 9 9 9 9 8 8 8 7 7 7 8 8 9 9 10 9 9 9
8 8 8 7 7 6 7 7 7 7 6 7 9 9 9 6 4 5 3 8 6 3 7 9 8 7 6 6 7 10 11 11 10 10 10 10 9 11 14 15 17 19 19 19 21 24 25 23 21 20 18 16 16 17 14 13 10 9 10 12 12 13 13 14 14 14 13 12 11 11 11 11 11 10 9 9 9 8 8 9 8 9 9 8 8 8 7 7 7 8 8 9 9 9 10 10 10
10 9 8 8 6 6 8 7 7 8 6 5 6 6 7 4 6 9 5 5 7 6 7 7 6 5 3 5 8 7 9 11 9 9 9 8 9 10 13 15 16 17 19 20 21 22 21 20 23 21 18 17 17 18 16 13 11 9 10 11 11 12 13 13 14 13 12 12 11 12 12 12 12 11 10 9 9 9 9 9 9 9 9 9 8 8 8 7 7 8 8 8 9 9 9 9 10
10 10 8 7 6 6 7 6 5 6 5 6 7 6 6 5 4 8 10 9 10 10 10 9 8 8 7 9 11 10 10 10 9 9 9 9 11 12 14 15 14 15 18 19 18 19 17 16 20 21 19 18 18 17 16 14 12 9 8 10 10 11 12 12 13 12 12 12 12 12 12 12 12 12 12 10 10 10 10 10 9 9 9 8 8 8 8 8 8 8 8 8 9 9 9 9 9
9 9 10 8 6 7 4 2 1 2 3 4 7 5 3 3 4 6 7 9 10 11 12 12 11 12 13 13 14 12 11 10 9 9 10 11 11 12 12 13 12 12 13 14 13 14 15 15 16 18 19 19 18 19 20 18 17 12 8 8 9 10 11 12 12 12 11 11 11 12 12 12 13 13 13 12 11 10 10 10 9 9 9 9 8 8 8 8 8 8 8 8 8 9 9 9 9
4 7 10 6 5 7 5 3 3 2 5 5 5 6 4 6 7 7 7 7 8 9 9 9 9 11 12 11 11 11 10 9 9 11 12 11 10 10 11 13 14 13 11 12 12 11 12 14 15 15 17 18 16 18 21 20 18 14 9 7 8 9 9 10 12 12 12 11 11 11 11 12 13 14 14 13 12 11 10 10 10 9 9 9 8 8 8 8 8 8 8 9 9 8 9 9 9
3 6 8 5 4 5 6 4 4 5 7 6 5 7 7 6 6 9 11 8 7 7 9 9 8 9 10 9 10 11 11 11 11 12 12 11 9 9 10 13 14 13 13 14 13 11 10 9 11 11 13 14 14 16 21 20 17 14 12 9 8 8 9 10 11 12 13 13 12 11 11 12 13 13 14 14 13 12 11 10 10 10 9 9 8 8 8 8 8 8 8 8 8 7 8 8 8
9 6 5 6 5 6 5 5 4 6 7 6 7 8 7 6 5 10 13 11 10 9 9 9 8 9 9 10 11 12 13 12 11 12 11 10 10 9 9 11 13 12 13 14 14 13 11 8 8 9 9 10 13 15 17 18 18 16 15 13 9 9 9 10 11 12 13 14 13 13 12 12 12 13 14 14 14 13 11 10 10 10 10 9 9 8 8 7 7 7 7 6 6 6 7 7 7
12 8 6 7 5 5 5 5 5 6 6 6 7 8 5 2 1 7 9 10 12 10 9 8 8 9 9 9 11 11 12 11 10 11 10 10 10 10 9 10 12 13 13 13 12 13 12 10 11 13 12 11 12 14 14 16 18 17 15 14 12 11 11 11 12 13 14 13 13 14 14 12 12 12 13 14 14 13 12 11 10 10 10 10 9 9 8 7 6 6 6 6 5 5 6 6 5
11 9 8 8 6 5 5 5 5 6 6 6 7 7 3 4 2 3 8 12 11 10 10 9 9 9 9 10 10 10 10 11 11 10 10 10 11 11 10 11 13 13 13 12 12 12 11 11 14 16 17 16 15 15 15 16 16 15 15 15 15 15 13 13 14 14 13 13 13 14 14 12 12 12 12 13 13 13 13 12 11 10 10 10 9 9 8 7 6 6 5 5 4 4 4 5 4
8 9 10 9 8 6 6 7 6 6 6 5 6 5 3 5 4 3 12 11 10 12 12 11 11 11 10 10 10 11 11 10 9 10 10 10 11 11 11 11 13 13 13 12 12 12 11 11 12 14 15 16 15 15 16 18 18 18 18 17 17 17 15 14 14 14 13 14 14 14 14 13 13 13 13 13 13 13 13 12 11 11 10 10 10 9 9 8 7 7 6 5 4 3 3 3 3
Wind_Direction
212 228 236 234 231 227 213 216 231 204 227 249 239 244 239 228 220 242 221 198 262 184 194 273 185 269 287 310 321 52 40 30 24 349 100 116 139 132 137 133 131 132 135 138 143 153 153 157 159 156 157 155 160 165 168 169 166 162 161 159 157 154 151 152 153 152 150 150 151 150 147 144 141 138 136 136 136 132 129 130 131 133 130 126 126 124 125 127 126 123 120 116 113 111 110 111 111
213 220 226 229 224 229 217 202 244 216 209 243 237 247 242 182 215 238 237 280 344 86 139 237 183 228 303 317 309 87 60 52 61 71 93 135 136 123 134 132 133 135 136 140 141 146 146 155 159 156 156 154 159 161 164 165 161 161 161 158 156 155 153 154 155 153 152 154 152 149 147 143 139 134 132 133 135 135 136 138 136 134 131 131 129 129 131 131 129 125 123 119 116 113 109 114 115
220 216 207 213 218 233 240 205 238 239 216 230 232 236 216 172 222 208 188 329 45 70 193 163 172 188 226 219 175 92 74 67 77 88 107 137 130 126 138 132 132 135 137 139 142 144 145 155 159 157 157 156 158 158 160 160 160 160 158 157 155 154 154 155 157 155 155 155 152 149 146 141 136 134 133 135 139 140 143 146 144 138 135 139 138 136 136 134 132 129 127 124 122 117 115 117 113
220 219 205 207 211 220 239 222 228 246 238 232 236 221 195 210 206 112 101 275 117 213 213 166 154 72 293 198 114 77 75 76 84 97 118 127 131 137 138 131 131 136 138 141 145 144 151 160 159 158 158 157 156 156 158 157 158 158 157 157 155 155 155 157 158 158 158 156 153 151 147 143 141 141 139 141 142 141 145 146 147 143 141 144 141 141 141 140 136 134 134 130 128 124 123 121 115
221 221 218 227 223 222 236 232 227 240 248 248 251 191 175 194 107 106 139 189 186 215 215 182 144 134 360 43 68 85 82 90 89 94 116 122 134 139 138 136 135 141 141 145 149 147 157 163 159 159 158 156 156 156 157 157 158 158 158 158 156 157 157 159 159 160 160 158 154 150 150 150 150 146 142 144 144 143 147 147 149 147 145 145 143 146 144 141 140 140 139 134 132 130 125 122 116
221 213 218 236 258 294 251 233 228 232 244 256 279 63 106 95 85 123 162 182 206 220 219 203 164 151 125 64 56 55 50 86 106 105 123 130 136 139 142 141 138 141 143 148 152 149 158 164 160 159 158 157 157 157 158 158 159 160 160 160 160 160 161 162 160 162 161 158 151 146 147 148 147 143 143 145 145 146 148 148 149 148 144 146 145 145 141 136 142 143 140 138 137 140 136 124 117
212 201 201 225 250 268 244 239 232 234 231 242 273 61 74 56 86 206 195 203 204 209 211 204 179 146 136 108 87 70 45 39 111 127 131 134 137 141 145 143 139 139 143 149 149 148 158 164 160 159 159 158 158 158 159 159 160 161 162 163 163 165 165 163 161 162 160 154 148 144 142 141 141 141 142 144 144 142 143 146 147 145 146 150 144 138 139 137 144 146 144 146 146 150 147 127 116
219 213 194 216 228 212 232 244 239 248 209 218 258 58 54 14 288 244 215 214 198 194 194 190 199 180 134 99 86 81 64 60 97 121 130 136 141 145 146 144 142 140 143 146 144 148 158 162 160 161 160 160 161 160 161 161 162 161 164 166 168 169 165 162 162 161 158 153 150 147 143 141 142 141 138 138 138 134 135 139 139 139 142 147 141 136 139 141 146 149 148 153 156 156 152 136 118
223 223 210 220 235 216 227 241 239 249 213 186 239 139 43 264 264 263 233 226 214 204 192 179 204 199 120 94 94 97 84 87 105 118 130 139 145 146 144 143 142 140 142 141 141 147 155 160 162 163 162 162 162 162 163 164 165 165 168 172 172 167 161 161 162 161 158 156 156 155 152 148 145 143 139 135 133 131 131 133 135 136 141 148 143 138 139 145 150 148 148 154 155 149 147 144 130
214 217 227 226 241 233 225 234 235 244 234 185 219 143 346 247 250 254 239 232 215 217 199 175 203 191 123 112 116 107 102 112 118 124 134 142 146 144 141 140 140 136 137 137 138 145 154 162 164 164 164 164 161 161 163 166 168 169 172 172 166 160 159 161 162 162 160 160 160 160 157 151 147 146 142 138 136 134 133 134 135 133 139 147 145 142 143 148 153 150 151 153 149 146 146 148 150
213 210 237 238 237 240 232 231 226 231 222 155 208 188 271 253 249 245 240 241 224 219 197 170 205 165 122 119 115 118 122 125 126 130 140 146 143 139 138 138 137 133 135 138 140 147 156 162 164 164 165 163 162 161 160 165 168 168 168 164 160 159 161 163 163 162 160 162 160 160 158 152 149 147 144 141 141 140 139 140 137 133 133 140 147 152 156 156 158 162 169 166 157 156 162 164 169
226 206 224 239 236 239 238 239 230 222 175 171 206 153 210 255 247 239 229 231 225 226 188 162 211 155 125 119 113 136 137 133 131 136 145 145 141 138 137 135 134 132 136 141 143 147 152 158 161 163 164 163 162 162 161 164 167 165 163 162 161 163 165 164 163 160 160 160 159 160 156 153 152 149 146 144 145 149 148 145 138 136 136 140 149 158 168 172 173 177 181 175 168 174 180 170 167
235 223 222 234 245 247 244 249 247 253 207 206 190 114 241 248 242 238 239 231 219 226 182 169 201 121 114 116 123 149 143 139 136 145 150 143 143 139 135 135 134 134 139 143 144 147 149 152 157 163 164 162 162 161 162 165 165 163 163 164 165 167 167 163 161 159 158 158 156 157 155 155 155 149 147 146 147 151 150 143 139 140 143 147 155 163 171 176 181 183 182 175 176 185 179 168 162
233 241 243 242 247 252 256 257 238 244 245 204 148 102 239 243 256 248 250 235 217 218 152 146 123 105 110 132 141 162 146 145 145 149 150 144 144 138 134 135 137 139 143 144 146 148 150 151 152 159 161 160 162 162 164 164 162 162 165 166 167 168 164 162 161 160 159 156 154 155 157 156 153 150 149 150 148 149 149 145 145 146 147 151 158 167 173 175 177 179 180 178 183 186 173 167 165
235 252 257 256 250 250 246 249 251 252 226 138 128 203 231 206 250 235 228 233 205 128 116 129 119 121 161 182 167 166 150 149 150 149 149 146 141 137 135 135 138 141 145 147 150 149 150 156 156 155 157 162 164 164 164 163 164 164 165 165 165 165 163 164 163 163 163 160 158 155 155 151 150 154 155 156 153 150 151 152 154 153 152 155 157 161 166 171 174 178 181 180 186 186 178 173 171
240 262 259 252 251 250 224 224 248 256 164 116 130 201 226 166 224 239 221 245 128 119 155 160 183 148 177 197 167 151 151 150 150 150 150 147 139 137 135 135 139 137 140 146 151 151 147 153 159 159 161 169 169 163 159 162 168 164 160 160 161 164 165 166 166 168 169 164 159 154 153 151 150 155 158 158 154 149 152 158 159 156 155 155 155 155 157 165 171 175 180 182 184 181 177 172 170
231 247 251 241 241 247 225 204 222 247 118 119 131 184 243 156 186 260 201 242 156 149 166 121 80 83 116 130 133 140 147 149 149 152 153 150 144 144 143 143 145 140 144 148 151 158 156 153 159 166 167 169 168 159 155 160 166 161 158 161 161 166 168 168 171 174 174 168 158 154 155 154 154 155 156 152 147 149 157 165 164 162 160 156 158 157 155 159 165 171 176 180 182 182 179 166 161
224 226 239 236 235 239 238 209 204 263 97 108 116 164 268 167 155 229 194 204 172 159 142 100 88 93 101 106 121 135 142 147 151 155 155 155 153 153 154 154 155 150 151 155 153 156 157 158 163 172 173 169 163 155 157 161 162 162 163 164 165 169 170 171 178 179 176 170 159 156 155 156 158 154 150 143 145 156 166 172 168 165 161 158 164 165 163 162 166 176 182 186 189 193 175 171 191
226 225 233 234 240 238 252 278 220 346 57 85 122 163 282 152 150 187 196 190 171 171 153 122 114 117 121 120 128 137 143 150 153 156 158 162 164 161 160 159 160 155 151 153 157 157 154 162 171 177 173 165 163 162 163 162 162 167 166 164 168 172 173 174 181 184 176 165 160 159 158 161 159 149 148 146 151 160 163 168 166 167 166 165 171 175 181 185 190 189 193 203 195 188 180 198 217
224 230 236 231 242 254 54 326 318 6 360 209 127 154 239 158 163 180 167 175 190 180 148 140 142 134 132 131 138 142 146 152 154 158 164 169 170 166 163 161 164 159 151 144 150 165 170 172 174 174 165 157 162 164 161 161 163 169 167 164 172 174 176 177 181 184 173 164 165 166 167 168 156 148 150 148 153 157 158 164 165 166 169 176 181 182 193 202 206 202 205 214 202 197 202 218 224
219 226 240 236 243 270 209 208 241 231 311 281 357 238 216 148 189 200 162 162 205 205 167 161 161 151 140 137 145 146 148 153 161 166 169 174 172 171 167 161 164 161 153 142 142 159 176 180 174 167 158 155 164 159 158 163 160 164 165 168 173 170 174 176 176 179 174 171 175 172 167 163 154 151 150 150 157 156 158 164 166 169 173 183 184 180 196 206 203 203 206 206 206 212 213 217 225
226 226 238 252 266 290 239 185 205 193 249 253 243 238 231 133 203 226 184 173 186 199 177 149 145 150 141 142 147 148 153 159 168 172 172 173 169 172 167 157 156 156 154 145 145 155 167 175 169 160 153 159 162 153 159 162 155 162 168 168 166 165 172 172 170 178 181 180 179 170 158 150 148 153 153 159 168 163 167 171 174 180 179 183 186 187 194 201 204 207 207 204 209 215 210 202 210
231 232 230 250 263 269 251 165 162 210 236 227 229 248 333 248 216 227 226 185 156 166 150 124 129 140 139 144 149 155 163 164 170 176 172 167 168 170 164 157 153 153 151 147 155 159 159 163 162 153 145 157 160 152 159 157 154 163 165 166 164 164 172 175 176 181 185 181 173 163 153 149 150 157 157 162 171 170 177 182 187 192 189 188 194 202 199 203 217 215 210 207 209 209 203 197 200
227 241 229 236 239 240 249 233 198 212 235 232 247 274 243 240 221 196 218 145 119 127 128 128 118 130 150 149 154 162 168 167 174 178 170 167 169 166 160 162 162 158 153 153 166 171 168 166 161 148 139 152 159 155 155 151 154 159 161 164 160 162 176 186 182 175 175 170 158 147 147 156 157 158 161 164 169 167 175 183 191 199 200 193 198 219 214 211 225 220 215 214 212 207 200 195 192
223 242 243 234 226 236 241 243 235 220 231 231 242 253 231 234 241 213 207 142 149 154 146 138 122 150 170 157 159 164 171 172 175 176 172 171 167 164 163 166 168 167 167 171 179 181 179 172 159 151 147 150 156 152 146 143 147 151 158 158 154 174 184 183 174 158 152 147 134 123 134 161 161 159 167 169 168 159 164 177 190 195 204 207 217 237 227 215 220 218 221 223 221 211 199 194 190
219 233 243 239 225 233 233 233 235 226 228 224 227 235 229 229 254 248 221 155 148 175 174 141 133 165 170 157 161 163 172 175 173 174 174 169 164 167 170 172 175 180 183 185 185 180 180 173 157 158 158 147 146 148 144 142 142 147 159 159 166 187 181 160 153 144 143 131 105 104 135 160 154 170 185 180 180 169 166 185 193 191 203 214 227 236 232 234 226 217 235 241 241 237 206 188 189
230 234 238 237 233 230 228 229 228 225 224 221 224 227 227 214 200 239 214 153 154 184 179 144 139 168 181 168 161 163 174 173 172 174 173 166 167 173 174 179 184 185 187 186 184 178 176 169 152 156 157 140 137 144 145 144 142 148 160 166 174 177 154 148 154 140 138 122 101 117 157 154 148 169 189 209 203 185 180 192 200 216 206 208 227 229 242 281 273 245 288 297 291 300 282 199 193
252 251 243 235 235 236 232 231 226 226 222 216 225 231 227 202 201 236 201 151 178 188 175 164 159 173 187 175 156 163 176 175 177 176 176 171 174 182 180 185 187 185 186 184 180 171 171 165 148 149 146 134 136 139 141 143 143 152 164 168 166 154 145 155 156 128 114 107 122 154 162 150 164 168 187 228 220 196 199 186 187 231 214 206 235 237 268 287 279 262 274 292 285 303 314 292 227
246 246 251 235 230 237 231 227 223 223 219 208 216 231 227 202 212 233 186 154 189 186 190 185 170 171 175 168 157 166 176 177 180 180 181 179 184 189 186 189 189 186 184 181 176 165 165 155 142 145 145 140 142 141 142 146 151 160 166 164 152 147 151 155 147 122 107 105 136 183 162 153 180 177 195 224 226 209 217 212 182 218 216 212 222 219 241 256 266 269 251 281 268 255 294 308 295
243 229 242 242 229 229 220 220 218 217 218 203 202 222 225 209 216 222 177 170 200 189 199 195 176 174 165 163 163 168 176 179 182 184 183 183 190 191 187 190 190 188 181 175 172 163 158 144 138 145 153 152 144 141 146 150 156 159 159 155 141 144 152 143 133 118 112 116 142 187 177 174 185 184 199 209 215 217 218 230 201 174 183 197 207 206 224 240 261 277 257 274 286 262 272 283 284
234 228 230 241 239 228 207 207 211 210 204 188 201 230 230 212 208 208 179 173 197 197 200 195 184 175 161 165 168 171 179 184 185 187 185 186 193 191 188 188 185 185 179 171 167 159 154 146 140 145 157 155 139 138 146 147 150 151 150 145 134 139 144 136 131 127 129 130 141 154 149 159 167 173 199 194 194 209 208 207 185 161 169 185 199 198 230 245 252 264 267 267 277 278 277 268 256
222 228 225 221 236 245 204 190 199 205 185 180 209 233 239 240 213 190 175 177 193 203 200 193 188 173 161 169 173 177 178 183 188 186 186 189 192 191 189 185 182 184 177 165 160 155 155 148 137 141 153 153 139 140 145 142 142 142 139 138 137 138 135 133 132 127 134 136 134 139 138 144 148 153 191 187 168 177 200 205 179 159 160 167 173 167 223 251 253 245 243 253 273 280 278 276 264
211 219 231 217 217 242 209 174 187 205 194 188 210 227 237 256 214 164 164 188 198 205 202 195 191 172 167 173 178 185 177 182 190 184 185 187 189 191 189 183 178 182 174 159 156 159 158 145 132 137 145 146 142 140 144 145 140 139 138 139 141 138 131 126 127 123 127 132 125 128 137 136 137 144 165 175 166 165 177 192 179 163 161 160 158 159 210 247 263 248 225 245 269 281 280 280 275
210 210 230 229 217 231 212 170 182 207 210 198 200 226 244 234 124 149 174 195 203 209 204 197 193 174 174 178 180 190 181 183 191 186 184 186 187 185 184 180 174 180 172 150 154 162 155 140 131 132 136 140 137 133 142 150 141 142 139 139 136 129 128 121 127 130 124 127 121 125 135 136 140 144 152 163 161 155 159 176 174 179 177 160 150 152 213 250 272 265 217 235 243 258 280 284 277
211 207 218 234 221 222 221 186 179 201 206 206 199 214 240 220 158 173 192 195 203 213 206 198 195 180 180 185 186 192 186 187 193 190 186 186 187 178 175 175 171 180 159 137 161 170 144 131 132 133 139 143 143 142 154 160 149 144 132 132 132 124 127 123 123 121 111 106 104 114 123 132 144 146 156 158 140 139 146 157 159 162 165 155 152 171 225 240 250 274 262 251 262 262 275 279 271
228 217 210 227 221 211 231 207 163 189 197 208 217 212 225 230 202 177 185 198 207 217 206 194 197 187 187 193 188 190 190 192 193 191 188 186 185 173 166 166 166 173 141 125 158 164 119 122 136 142 146 148 152 154 159 163 150 136 129 135 135 130 127 120 112 105 99 96 96 102 106 113 130 133 140 138 132 138 135 140 146 147 164 160 156 164 202 225 223 263 261 239 257 260 260 268 271
290 250 212 222 228 203 223 211 150 185 213 206 220 227 221 230 225 189 183 200 207 218 205 186 199 198 193 196 190 190 193 195 195 193 190 184 173 156 151 159 158 152 140 137 147 133 109 122 132 136 146 152 156 152 146 157 156 139 145 149 140 132 125 117 106 98 91 90 92 92 94 97 104 107 106 104 110 119 119 126 129 126 163 130 110 123 138 208 223 242 245 223 223 234 239 249 264
279 270 234 222 233 211 207 192 141 176 227 215 217 231 225 230 233 196 176 198 205 216 205 187 203 205 196 196 192 191 193 195 197 194 190 174 144 134 147 162 158 139 137 138 118 111 126 136 140 145 158 167 161 150 137 150 183 169 159 151 139 133 128 122 110 102 98 94 92 89 88 89 88 87 85 81 82 82 86 97 102 101 85 78 88 112 138 194 215 221 246 240 219 215 216 228 237
251 256 253 230 227 221 197 161 141 180 211 231 223 226 229 231 228 183 175 203 208 214 209 197 205 205 196 195 190 193 196 198 202 190 170 128 104 125 146 155 163 137 130 125 112 123 145 159 161 157 162 166 160 151 141 162 212 183 153 145 138 133 124 117 110 108 108 105 101 94 87 86 86 84 82 78 72 67 66 72 75 73 67 67 93 116 146 193 233 224 244 263 246 218 201 221 229
242 242 243 236 218 219 202 166 198 202 202 242 236 223 231 226 200 169 183 206 210 212 211 201 206 207 198 192 192 198 197 200 203 171 96 76 89 138 136 134 152 118 125 139 137 140 152 165 166 156 155 155 155 156 147 180 216 163 141 136 128 123 116 112 111 110 110 108 103 98 97 97 96 89 83 78 69 61 54 59 60 61 66 60 73 88 108 116 305 274 266 282 282 300 238 216 216
229 236 240 241 223 223 225 185 200 200 207 241 251 234 221 200 188 190 188 204 209 205 205 202 205 208 192 186 194 204 207 208 194 113 78 76 105 124 145 171 162 123 135 157 156 155 158 162 162 156 157 155 157 160 156 187 190 149 140 131 120 120 124 126 122 116 115 114 108 105 108 108 104 95 86 80 70 62 51 50 51 54 62 56 62 68 64 63 31 2 360 337 324 332 291 215 180
221 226 239 252 247 230 214 177 193 209 210 212 224 237 213 185 199 201 184 196 206 200 202 201 202 202 190 188 194 203 209 185 97 95 99 130 158 165 179 179 155 134 152 173 164 160 157 158 162 159 160 159 157 160 168 188 177 152 149 141 135 138 136 134 126 120 120 116 111 111 109 106 104 96 86 81 69 62 57 54 54 55 60 56 52 49 46 43 34 27 16 10 6 357 340 288 200
232 206 220 246 263 243 210 195 204 225 234 194 208 233 221 186 200 199 185 193 202 198 198 200 200 198 198 196 194 208 192 105 91 119 144 163 176 183 182 173 146 138 158 178 175 161 148 150 160 154 152 158 156 165 185 191 176 161 158 148 145 143 132 124 119 116 115 113 112 110 106 104 101 95 88 83 76 68 62 59 57 55 60 69 67 54 45 36 32 31 24 22 22 19 10 346 340
249 189 202 224 245 241 223 226 222 227 259 208 212 231 231 196 195 190 182 192 202 192 188 200 201 201 206 201 200 210 149 110 118 159 160 164 184 192 174 161 151 144 155 163 153 138 129 138 151 146 151 161 161 177 196 192 177 169 160 150 143 134 126 122 121 118 116 117 117 114 111 106 100 98 94 87 84 78 70 66 61 57 50 54 69 62 50 43 36 34 35 35 29 27 24 12 9
246 216 211 214 224 226 223 234 235 231 243 231 215 221 228 216 198 185 177 194 204 189 186 194 195 204 203 207 217 185 112 131 157 157 154 170 186 183 161 157 152 143 144 140 125 118 127 145 157 159 163 168 172 184 193 186 176 170 157 149 140 130 128 128 127 125 122 122 119 116 113 106 100 99 95 88 85 81 78 76 69 65 54 48 62 67 64 57 47 42 40 39 35 32 30 24 20
217 221 223 214 221 225 224 234 236 226 236 244 219 209 221 215 184 179 181 204 206 185 182 180 189 208 190 203 232 109 101 182 176 148 157 175 179 161 143 151 149 141 140 142 141 139 147 155 159 166 169 174 181 184 187 183 174 166 154 146 138 133 134 133 131 129 127 126 123 119 117 114 111 106 98 90 88 84 81 80 75 71 62 58 67 72 71 66 56 51 44 40 41 41 40 37 33
186 216 221 211 218 223 225 235 237 227 230 243 227 210 221 215 173 190 205 203 199 185 171 162 177 193 176 206 228 97 116 223 179 145 154 157 160 146 138 150 149 137 135 147 154 152 156 159 159 166 167 170 179 178 185 191 174 161 151 142 139 138 138 137 135 135 134 132 131 127 122 120 117 114 107 98 94 91 84 80 78 76 70 66 69 70 72 70 62 57 51 49 49 48 48 48 48
211 223 219 205 209 213 217 220 225 233 232 235 225 205 217 229 180 197 190 146 152 192 173 168 178 175 173 197 175 125 153 203 168 150 149 145 153 147 145 153 145 128 127 147 162 158 161 164 163 166 161 161 173 171 191 211 180 159 150 142 142 141 142 142 139 139 139 138 137 133 127 126 124 121 117 108 103 99 93 87 81 78 75 71 72 70 69 70 67 65 60 57 54 50 50 49 49
219 226 223 212 208 209 221 218 212 229 232 232 225 203 211 222 121 101 80 90 101 140 155 171 176 159 165 170 135 133 161 175 164 154 145 144 153 151 153 154 142 129 131 153 170 166 165 167 168 168 161 165 172 166 185 212 187 158 150 146 146 145 145 144 141 141 143 144 143 139 137 137 134 130 124 117 113 106 99 93 87 84 81 77 78 76 72 71 74 76 70 63 60 54 51 51 51
214 220 221 216 209 209 226 222 213 225 220 201 214 213 215 212 121 126 133 113 117 117 127 152 153 143 156 123 114 140 163 162 156 146 140 143 147 147 149 151 150 149 151 162 174 174 170 170 172 170 160 164 172 165 177 192 173 155 154 149 149 152 149 144 143 145 147 148 147 146 146 143 140 136 130 124 119 112 105 99 94 91 90 87 85 81 75 72 75 80 75 66 64 59 55 55 53
214 224 228 228 219 218 232 238 234 236 219 183 187 213 224 218 153 137 144 145 142 136 134 144 150 150 152 142 144 159 159 152 147 145 148 150 151 155 151 149 155 162 162 164 171 174 171 172 173 166 159 164 168 165 169 167 153 151 157 156 156 157 152 146 145 147 150 152 152 151 149 145 143 139 134 129 123 119 113 109 105 98 95 91 87 86 83 76 74 79 76 70 69 64 61 60 58
208 220 228 228 225 229 228 233 291 327 282 210 185 215 228 153 135 133 144 147 142 138 138 145 151 144 142 146 150 151 144 144 150 147 145 147 156 164 158 153 151 152 159 164 168 172 169 171 173 164 159 161 160 163 165 160 157 156 154 160 167 162 154 148 145 147 151 151 151 152 149 148 147 141 138 135 131 129 124 119 113 105 100 95 90 89 89 85 81 82 79 75 73 68 65 64 62
195 219 234 229 233 252 247 198 145 151 255 240 196 218 195 143 156 169 167 148 129 127 123 123 126 124 129 134 132 129 128 130 134 132 133 141 158 162 153 155 154 142 147 162 173 179 168 165 169 161 154 154 156 166 166 158 159 165 166 168 172 165 153 145 144 147 150 149 149 152 150 149 149 145 143 141 139 137 134 129 123 115 110 104 100 97 94 93 88 86 85 81 78 74 70 67 62
213 218 235 235 237 261 268 244 189 198 234 230 207 218 207 192 185 169 172 166 139 127 109 101 100 100 102 104 107 111 112 112 119 125 129 138 156 160 147 154 158 145 141 149 156 166 166 162 166 159 151 152 156 163 163 157 157 170 184 187 182 170 152 143 148 151 151 152 153 154 153 152 152 152 149 146 145 144 142 139 134 130 127 119 114 109 103 99 93 89 87 83 82 79 76 73 68
246 253 239 232 235 232 232 243 233 223 233 231 214 212 222 236 192 166 182 178 146 130 115 107 104 101 101 103 107 108 108 108 113 121 128 134 149 156 146 147 151 142 133 131 132 142 154 160 157 150 147 153 158 157 160 165 167 176 192 196 190 179 164 154 156 159 158 160 159 157 158 157 158 160 155 150 149 148 149 149 145 143 140 135 131 126 119 113 106 102 97 89 85 81 80 77 72
236 259 251 227 240 249 229 226 237 233 229 233 227 216 221 284 171 176 178 150 134 130 126 121 113 112 114 111 112 112 112 114 114 118 126 132 140 145 142 142 146 141 129 122 125 132 143 151 149 149 152 158 165 161 162 173 177 183 195 196 192 187 177 166 165 166 166 166 163 160 161 164 164 165 162 157 153 153 155 155 153 152 150 147 143 138 134 128 121 117 110 103 100 97 95 87 76
214 227 237 224 220 235 237 233 245 253 240 226 231 221 159 45 358 177 125 115 127 135 137 138 131 126 119 112 115 115 108 109 113 117 122 127 133 136 137 141 144 140 128 121 124 126 135 145 143 148 158 163 166 163 165 174 180 192 201 195 193 192 182 174 172 171 170 168 166 164 165 168 170 170 170 165 159 159 161 160 159 159 157 156 153 147 145 140 133 127 120 116 119 117 109 101 95
225 215 223 231 225 216 229 234 228 243 252 245 242 225 110 41 340 122 123 130 146 150 151 146 138 132 120 111 113 111 106 108 117 124 128 129 131 132 134 140 142 136 125 122 127 129 132 139 139 143 155 163 164 162 165 170 177 195 203 193 190 190 181 176 174 171 171 172 171 173 173 173 174 176 177 174 167 164 166 167 166 166 164 163 159 156 153 148 143 138 135 134 137 134 119 115 125